Weather History for K79J - September, 2013

Change the Weather History Date:

Monday, September 9, 2013

  Actual Average (KCEW) Record (KCEW)
Temperature  
Mean Temperature 83 °F -  
Max Temperature 95 °F 90 °F 95 °F (1948)
Min Temperature 71 °F 69 °F 54 °F (2011)
Cooling Degree Days 18    
Growing Degree Days 33 (Base 50)    
Moisture  
Dew Point 69 °F    
Average Humidity 70    
Maximum Humidity 90    
Minimum Humidity 40    
Precipitation  
Precipitation 0.00 in - - ()
Sea Level Pressure  
Sea Level Pressure 30.02 in    
Wind  
Wind Speed 1 mph (East)    
Max Wind Speed 6 mph    
Max Gust Speed -    
Visibility 10 miles    
Events      
Averages and records for this station are not official NWS values.
T = Trace of Precipitation, MM = Missing Value Source: NWS Daily Summary

Daily Weather History Graph

Daily Weather History Graph

Search for Another Location

Airport or City:

Trip Planner

Search our weather history database for the weather conditions in past years. The results will help you decide how hot, cold, wet, or windy it might be!

Date:

Astronomy

Sep. 09, 2013 Rise Set
Actual Time 6:26 AM CDT 6:58 PM CDT
Civil Twilight 6:01 AM CDT 7:23 PM CDT
Nautical Twilight 5:33 AM CDT 7:51 PM CDT
Astronomical Twilight 5:03 AM CDT 8:20 PM CDT
Moon 10:27 AM CDT (9/9) 9:35 PM CDT (9/9)
Length of Visible Light 13h 21m
Length of Day
12h 32m
Waxing Crescent, 19% of the Moon is Illuminated
Sep 9
Waxing Crescent
Sep 12
First Quarter
Sep 19
Full
Sep 26
Last Quarter
Oct 4
New

Hourly Weather History & Observations

Time (CDT) Temp. Heat Index Dew Point Humidity Pressure Visibility Wind Dir Wind Speed Gust Speed Precip Events Conditions
12:56 AM 73.0 °F - 70.0 °F 90% 29.97 in 10.0 mi Calm Calm - N/A   Clear
1:56 AM 73.0 °F - 69.1 °F 87% 29.97 in 10.0 mi Calm Calm - N/A   Clear
2:56 AM 72.0 °F - 68.0 °F 87% 29.98 in 10.0 mi Calm Calm - N/A   Clear
3:56 AM 72.0 °F - 68.0 °F 87% 29.98 in 10.0 mi Calm Calm - N/A   Clear
4:56 AM 71.1 °F - 68.0 °F 90% 29.99 in 10.0 mi Calm Calm - N/A   Clear
5:56 AM 71.1 °F - 66.9 °F 87% 30.01 in 10.0 mi Calm Calm - N/A   Clear
6:56 AM 71.1 °F - 68.0 °F 90% 30.02 in 10.0 mi Calm Calm - N/A   Clear
7:56 AM 75.9 °F - 70.0 °F 82% 30.04 in 10.0 mi Calm Calm - N/A   Clear
8:56 AM 82.9 °F 87.5 °F 71.1 °F 67% 30.05 in 10.0 mi Calm Calm - N/A   Clear
9:56 AM 89.1 °F 95.0 °F 71.1 °F 55% 30.06 in 10.0 mi Calm Calm - N/A   Clear
10:56 AM 90.0 °F 93.6 °F 68.0 °F 48% 30.05 in 10.0 mi Calm Calm - N/A   Clear
11:56 AM - - - N/A% 30.06 in 10.0 mi SE 5.8 mph - N/A   Clear
12:56 PM - - - N/A% 30.05 in 10.0 mi East 4.6 mph - N/A   Scattered Clouds
1:56 PM 95.0 °F 99.0 °F 66.9 °F 40% 30.03 in 10.0 mi Variable 4.6 mph - N/A   Partly Cloudy
2:56 PM 93.9 °F 97.0 °F 66.0 °F 40% 30.01 in 10.0 mi NE 3.5 mph - N/A   Partly Cloudy
3:56 PM 93.9 °F 97.5 °F 66.9 °F 41% 29.99 in 10.0 mi Calm Calm - N/A   Scattered Clouds
4:56 PM 91.9 °F 94.5 °F 66.0 °F 42% 29.99 in 10.0 mi Calm Calm - N/A   Partly Cloudy
5:56 PM 91.9 °F 95.9 °F 68.0 °F 45% 29.99 in 10.0 mi NNE 3.5 mph - N/A   Clear
6:56 PM 82.9 °F 88.8 °F 73.0 °F 72% 30.00 in 10.0 mi Calm Calm - N/A   Clear
7:56 PM 81.0 °F 85.2 °F 72.0 °F 74% 30.00 in 10.0 mi Calm Calm - N/A   Clear
8:56 PM 79.0 °F - 73.9 °F 84% 30.03 in 10.0 mi Calm Calm - N/A   Scattered Clouds
9:56 PM 81.0 °F 85.8 °F 73.0 °F 77% 30.06 in 10.0 mi South 4.6 mph - N/A   Mostly Cloudy
10:56 PM 79.0 °F - 72.0 °F 79% 30.06 in 10.0 mi Calm Calm - N/A   Clear
11:56 PM 77.0 °F - 72.0 °F 84% 30.07 in 10.0 mi Calm Calm - N/A   Clear